Yukon, OK

11:04 AM CST on February 12, 2016 (GMT -0600)
Oklahoma City / Page Muni

Weather History for KRCE - February, 2013

Change the Weather History Date:

Saturday, February 2, 2013

  Actual Average (KOKC) Record (KOKC)
Temperature  
Mean Temperature 42 °F 41 °F  
Max Temperature 57 °F 52 °F 77 °F (1995)
Min Temperature 26 °F 30 °F -4 °F (1895)
Degree Days  
Heating Degree Days 24 24  
Month to date heating degree days 48  
Since 1 July heating degree days 2201  
Moisture  
Dew Point 28 °F    
Average Humidity 62    
Maximum Humidity 93    
Minimum Humidity 33    
Precipitation  
Precipitation 0.00 in 0.05 in 0.88 in (1943)
Month to date precipitation 0.10  
Year to date precipitation 1.49  
Snow  
Snow 0.00 in 0.10 in 2.50 in (1913)
Month to date snowfall 0.2  
Since 1 July snowfall 5.5  
Snow Depth -    
Sea Level Pressure  
Sea Level Pressure 30.26 in    
Wind  
Wind Speed 7 mph (NW)    
Max Wind Speed 16 mph    
Max Gust Speed 18 mph    
Visibility 10 miles    
Events      
T = Trace of Precipitation, MM = Missing Value Source: NWS Daily Summary

Daily Weather History Graph

Daily Weather History Graph

Search for Another Location

Airport or City:

Trip Planner

Search our weather history database for the weather conditions in past years. The results will help you decide how hot, cold, wet, or windy it might be!

Date:

Astronomy

Feb. 02, 2013 Rise Set
Actual Time 7:29 AM CST 6:00 PM CST
Civil Twilight 7:03 AM CST 6:27 PM CST
Nautical Twilight 6:32 AM CST 6:57 PM CST
Astronomical Twilight 6:02 AM CST 7:27 PM CST
Moon No Moon Rise 10:57 AM CST (2/2)
Length of Visible Light 11h 24m
Length of Day
10h 30m
Waning Gibbous, 59% of the Moon is Illuminated
Feb 2
Waning Gibbous
Feb 3
Last Quarter
Feb 10
New
Feb 17
First Quarter
Feb 25
Full

Hourly Weather History & Observations

Time (CST) Temp. Windchill Dew Point Humidity Pressure Visibility Wind Dir Wind Speed Gust Speed Precip Events Conditions
12:15 AM 35.6 °F 30.7 °F 24.8 °F 65% 30.18 in 10.0 mi East 5.8 mph - N/A   Unknown
12:35 AM 35.6 °F 30.7 °F 24.8 °F 65% 30.17 in 10.0 mi ESE 5.8 mph - N/A   Unknown
12:55 AM 35.6 °F 30.7 °F 24.8 °F 65% 30.17 in 10.0 mi ESE 5.8 mph - N/A   Unknown
1:15 AM 33.8 °F 28.6 °F 24.8 °F 70% 30.17 in 10.0 mi East 5.8 mph - N/A   Unknown
1:35 AM 32.0 °F 27.5 °F 24.8 °F 75% 30.16 in 10.0 mi NE 4.6 mph - N/A   Unknown
1:55 AM 32.0 °F 25.6 °F 24.8 °F 75% 30.16 in 10.0 mi East 6.9 mph - N/A   Unknown
2:15 AM 33.8 °F 29.6 °F 24.8 °F 70% 30.16 in 10.0 mi ENE 4.6 mph - N/A   Clear
2:35 AM 32.0 °F 26.4 °F 24.8 °F 75% 30.16 in 10.0 mi East 5.8 mph - N/A   Unknown
2:55 AM 32.0 °F 28.7 °F 24.8 °F 75% 30.17 in 10.0 mi ENE 3.5 mph - N/A   Clear
3:15 AM 32.0 °F 27.5 °F 24.8 °F 75% 30.17 in 10.0 mi SE 4.6 mph - N/A   Clear
3:35 AM 28.4 °F 24.6 °F 24.8 °F 86% 30.17 in 10.0 mi SSW 3.5 mph - N/A   Unknown
3:55 AM 28.4 °F 23.3 °F 24.8 °F 86% 30.17 in 10.0 mi South 4.6 mph - N/A   Unknown
4:15 AM 26.6 °F 22.6 °F 24.8 °F 93% 30.18 in 10.0 mi WSW 3.5 mph - N/A   Unknown
4:35 AM 28.4 °F 23.3 °F 24.8 °F 86% 30.18 in 10.0 mi SW 4.6 mph - N/A   Unknown
4:55 AM 28.4 °F 24.6 °F 24.8 °F 86% 30.19 in 10.0 mi West 3.5 mph - N/A   Unknown
5:15 AM 26.6 °F 18.2 °F 24.8 °F 93% 30.20 in 10.0 mi NNW 8.1 mph - N/A   Unknown
5:55 AM 26.6 °F 19.1 °F 24.8 °F 93% 30.22 in 10.0 mi North 6.9 mph - N/A   Unknown
6:15 AM 28.4 °F 20.4 °F 24.8 °F 86% 30.23 in 10.0 mi North 8.1 mph - N/A   Unknown
6:35 AM 28.4 °F 22.2 °F 23.0 °F 80% 30.22 in 10.0 mi NNW 5.8 mph - N/A   Unknown
6:55 AM 28.4 °F 22.2 °F 23.0 °F 80% 30.23 in 10.0 mi NW 5.8 mph - N/A   Unknown
7:15 AM 30.2 °F 24.3 °F 23.0 °F 75% 30.24 in 10.0 mi North 5.8 mph - N/A   Unknown
7:35 AM 28.4 °F - 23.0 °F 80% 30.25 in 10.0 mi North - - N/A   Clear
7:55 AM 28.4 °F - 23.0 °F 80% 30.26 in 10.0 mi North - - N/A   Clear
8:15 AM 32.0 °F - 24.8 °F 75% 30.27 in 10.0 mi North - - N/A   Clear
8:35 AM 35.6 °F 29.9 °F 26.6 °F 70% 30.28 in 10.0 mi NW 6.9 mph - N/A   Clear
8:55 AM 37.4 °F 28.2 °F 28.4 °F 70% 30.28 in 10.0 mi NNW 16.1 mph - N/A   Clear
9:15 AM 39.2 °F 33.0 °F 28.4 °F 65% 30.28 in 10.0 mi NNW 9.2 mph - N/A   Clear
9:35 AM 39.2 °F 33.0 °F 30.2 °F 70% 30.29 in 10.0 mi NNW 9.2 mph - N/A   Clear
9:55 AM 41.0 °F 34.3 °F 32.0 °F 70% 30.30 in 10.0 mi NNW 11.5 mph - N/A   Clear
10:15 AM 44.6 °F 38.4 °F 32.0 °F 61% 30.31 in 10.0 mi North 12.7 mph - N/A   Clear
10:35 AM 46.4 °F 40.1 °F 32.0 °F 57% 30.32 in 10.0 mi North 15.0 mph - N/A   Clear
10:55 AM 46.4 °F 40.1 °F 32.0 °F 57% 30.33 in 10.0 mi North 15.0 mph - N/A   Clear
11:15 AM 48.2 °F - 32.0 °F 54% 30.33 in 10.0 mi North 10.4 mph - N/A   Clear
11:35 AM 48.2 °F - 32.0 °F 54% 30.33 in 10.0 mi North 11.5 mph - N/A   Clear
11:55 AM 50.0 °F - 32.0 °F 50% 30.32 in 10.0 mi North 11.5 mph - N/A   Clear
12:15 PM 51.8 °F - 32.0 °F 47% 30.31 in 10.0 mi North 10.4 mph - N/A   Clear
12:35 PM 53.6 °F - 33.8 °F 47% 30.31 in 10.0 mi North 10.4 mph - N/A   Clear
12:55 PM 53.6 °F - 33.8 °F 47% 30.30 in 10.0 mi North 10.4 mph - N/A   Clear
1:15 PM 53.6 °F - 33.8 °F 47% 30.29 in 10.0 mi NNW 10.4 mph - N/A   Clear
1:35 PM 53.6 °F - 33.8 °F 47% 30.29 in 10.0 mi North 10.4 mph 18.4 mph N/A   Clear
1:55 PM 55.4 °F - 33.8 °F 44% 30.29 in 10.0 mi NNW 12.7 mph - N/A   Clear
2:15 PM 55.4 °F - 32.0 °F 41% 30.29 in 10.0 mi NNW 10.4 mph - N/A   Clear
2:35 PM 55.4 °F - 32.0 °F 41% 30.29 in 10.0 mi NNW 10.4 mph - N/A   Clear
2:55 PM 57.2 °F - 32.0 °F 38% 30.28 in 10.0 mi NW 8.1 mph - N/A   Clear
3:15 PM 57.2 °F - 32.0 °F 38% 30.29 in 10.0 mi North - - N/A   Clear
3:35 PM 57.2 °F - 32.0 °F 38% 30.28 in 10.0 mi North - - N/A   Clear
3:55 PM 57.2 °F - 32.0 °F 38% 30.28 in 10.0 mi North - - N/A   Clear
4:15 PM 57.2 °F - 32.0 °F 38% 30.28 in 10.0 mi North - - N/A   Clear
4:35 PM 57.2 °F - 28.4 °F 33% 30.28 in 10.0 mi North - - N/A   Clear
4:55 PM 55.4 °F - 28.4 °F 36% 30.28 in 10.0 mi North - - N/A   Clear
5:35 PM 55.4 °F - 28.4 °F 36% 30.29 in 5.0 mi North - - N/A   Haze
5:55 PM 51.8 °F - 28.4 °F 41% 30.29 in 10.0 mi North - - N/A   Clear
6:15 PM 51.8 °F - 28.4 °F 41% 30.29 in 10.0 mi Calm Calm - N/A   Clear
6:35 PM 50.0 °F - 28.4 °F 43% 30.29 in 10.0 mi Calm Calm - N/A   Clear
6:55 PM 48.2 °F - 28.4 °F 46% 30.29 in 10.0 mi WSW 3.5 mph - N/A   Clear
7:15 PM 46.4 °F 44.3 °F 30.2 °F 53% 30.30 in 10.0 mi WSW 4.6 mph - N/A   Unknown
7:35 PM 44.6 °F 41.4 °F 30.2 °F 57% 30.30 in 10.0 mi SW 5.8 mph - N/A   Clear
7:55 PM 44.6 °F 41.4 °F 30.2 °F 57% 30.30 in 10.0 mi SW 5.8 mph - N/A   Unknown
8:15 PM 41.0 °F 37.1 °F 30.2 °F 65% 30.30 in 10.0 mi SW 5.8 mph - N/A   Unknown
8:35 PM 41.0 °F 36.4 °F 28.4 °F 61% 30.31 in 10.0 mi WSW 6.9 mph - N/A   Unknown
8:55 PM 41.0 °F 36.4 °F 28.4 °F 61% 30.31 in 10.0 mi WSW 6.9 mph - N/A   Clear
9:15 PM 41.0 °F 37.1 °F 30.2 °F 65% 30.31 in 10.0 mi WSW 5.8 mph - N/A   Clear
9:35 PM 39.2 °F 34.2 °F 30.2 °F 70% 30.31 in 10.0 mi SW 6.9 mph - N/A   Clear
9:55 PM 41.0 °F 37.1 °F 28.4 °F 61% 30.32 in 10.0 mi WSW 5.8 mph - N/A   Clear
10:15 PM 41.0 °F 37.1 °F 28.4 °F 61% 30.32 in 10.0 mi WSW 5.8 mph - N/A   Clear
10:35 PM 39.2 °F 35.0 °F 28.4 °F 65% 30.32 in 10.0 mi WSW 5.8 mph - N/A   Unknown
10:55 PM 39.2 °F 35.9 °F 28.4 °F 65% 30.32 in 10.0 mi SW 4.6 mph - N/A   Unknown
11:15 PM 39.2 °F 35.0 °F 28.4 °F 65% 30.32 in 10.0 mi SW 5.8 mph - N/A   Unknown
11:35 PM 37.4 °F 32.8 °F 28.4 °F 70% 30.32 in 10.0 mi SW 5.8 mph - N/A   Unknown
11:55 PM 39.2 °F 35.0 °F 26.6 °F 61% 30.32 in 10.0 mi SW 5.8 mph - N/A   Unknown